sat.trackr.live / text

‹ back to catalog

TIGER-6

NORAD 58272 · 2023-174S

PAYLOAD ACTIVE UNKNOWN

§ Identity

Operator
Country
RWA
Launch date
2023-11-11
Launch site
AFWTR
Launch vehicle
Mass (kg)
RCS (m²)

External: N2YO · Heavens-Above · Gunter

§ Orbital elements

Epoch: 2026-05-25T05:31:17.024160Z

Period
89.91 min
Inclination
97.3749°
Eccentricity
0.0009046
Mean motion
16.01666589 rev/d
Perigee alt
263.8 km
Apogee alt
275.8 km
Semi-major
6,647.9 km
B*
1.0303e-3
RAAN
244.0786°
Arg perigee
243.2497°
Mean anomaly
116.7857°
Rev number
14,273

§ Raw data

TIGER-61 58272U 23174S   26145.23005815  .00575390  15230-3  10303-2 0  99952 58272  97.3749 244.0786 0009046 243.2497 116.7857 16.01666589142736

JSON: /api/v1/satellites/58272 · /tle

For live sub-satellite position, see the globe view (requires WebGL).

§ Visibility from observer

Set your observer location to see the next 7 days of passes ≥ 10°. The values pass through the URL so the page stays shareable.

No JS? Fill the form by hand. The geolocation button needs JavaScript.